Change the Weather History Date:

Tuesday, September 2, 2014

  Actual Average Record
Temperature  
Mean Temperature 86 °F 74 °F  
Max Temperature 93 °F 81 °F 102 °F (1953)
Min Temperature 79 °F 66 °F 56 °F (1967)
Degree Days  
Heating Degree Days 0 0  
Month to date heating degree days 0 0  
Since 1 July heating degree days 0 1  
Cooling Degree Days 21 9  
Month to date cooling degree days 38 18  
Year to date cooling degree days 1025 1051  
Growing Degree Days 36 (Base 50)    
Moisture  
Dew Point 69 °F    
Average Humidity 63    
Maximum Humidity 85    
Minimum Humidity 41    
Precipitation  
Precipitation 0.00 in 0.12 in 2.88 in (2002)
Month to date precipitation T 0.23  
Year to date precipitation 35.06 30.48  
Snow  
Snow 0.00 in 0.00 in - ()
Month to date snowfall 0.0 0.0  
Since 1 July snowfall 0.0 0.0  
Snow Depth 0.00 in    
Sea Level Pressure  
Sea Level Pressure 29.86 in    
Wind  
Wind Speed 10 mph (SW)    
Max Wind Speed 24 mph    
Max Gust Speed 38 mph    
Visibility 10 miles    
Events      
T = Trace of Precipitation, MM = Missing Value Source: NWS Daily Summary

Daily Weather History Graph

Daily Weather History Graph

Search for Another Location

Airport or City:

Trip Planner

Search our weather history database for the weather conditions in past years. The results will help you decide how hot, cold, wet, or windy it might be!

Date:

Astronomy

Sep. 02, 2014 Rise Set
Actual Time 6:23 AM EDT 7:26 PM EDT
Civil Twilight 5:55 AM EDT 7:54 PM EDT
Nautical Twilight 5:21 AM EDT 8:27 PM EDT
Astronomical Twilight 4:46 AM EDT 9:02 PM EDT
Moon 2:07 PM EDT (9/2) No Moon Set
Length of Visible Light 13h 58m
Length of Day
13h 02m
First Quarter, 52% of the Moon is Illuminated
Sep 2
First Quarter
Sep 8
Full
Sep 15
Last Quarter
Sep 24
New
Oct 1
First Quarter

Hourly Weather History & Observations

Time (EDT) Temp. Heat Index Dew Point Humidity Pressure Visibility Wind Dir Wind Speed Gust Speed Precip Events Conditions
12:51 AM 81.0 °F 85.8 °F 73.0 °F 77% 29.93 in 10.0 mi SSW 8.1 mph - N/A   Clear
1:51 AM 80.1 °F 84.2 °F 73.0 °F 79% 29.92 in 10.0 mi SSW 6.9 mph - N/A   Clear
2:51 AM 80.1 °F 84.2 °F 73.0 °F 79% 29.91 in 10.0 mi SSW 5.8 mph - N/A   Clear
3:51 AM 80.1 °F 84.2 °F 73.0 °F 79% 29.91 in 10.0 mi SW 5.8 mph - N/A   Clear
4:51 AM 78.8 °F - 73.4 °F 83% 29.89 in 10.0 mi SSW 4.6 mph - N/A   Clear
5:51 AM 79.0 °F - 72.0 °F 79% 29.89 in 10.0 mi WSW 3.5 mph - N/A   Partly Cloudy
6:51 AM 80.1 °F 83.8 °F 72.0 °F 76% 29.91 in 10.0 mi South 3.5 mph - N/A   Mostly Cloudy
7:51 AM 80.6 °F 84.6 °F 71.6 °F 74% 29.91 in 10.0 mi SW 5.8 mph - N/A   Mostly Cloudy
8:51 AM 84.0 °F 88.4 °F 70.0 °F 63% 29.91 in 10.0 mi West 8.1 mph - N/A   Mostly Cloudy
9:51 AM 82.9 °F 87.5 °F 71.1 °F 67% 29.93 in 10.0 mi Variable 3.5 mph - N/A   Mostly Cloudy
10:51 AM 86.0 °F 91.8 °F 71.6 °F 62% 29.91 in 10.0 mi West 5.8 mph - N/A   Mostly Cloudy
11:51 AM 88.0 °F 92.9 °F 70.0 °F 55% 29.90 in 10.0 mi NNW 3.5 mph - N/A   Mostly Cloudy
12:51 PM 89.1 °F 93.7 °F 69.1 °F 52% 29.87 in 10.0 mi WNW 3.5 mph - N/A   Mostly Cloudy
1:51 PM 90.0 °F 92.8 °F 66.9 °F 46% 29.86 in 10.0 mi SSW 12.7 mph 17.3 mph N/A   Mostly Cloudy
2:51 PM 91.0 °F 94.3 °F 66.9 °F 45% 29.83 in 10.0 mi SW 11.5 mph - N/A   Mostly Cloudy
3:51 PM 91.9 °F 95.4 °F 66.9 °F 44% 29.81 in 10.0 mi SSW 15.0 mph 23.0 mph N/A   Mostly Cloudy
4:51 PM 91.0 °F 94.3 °F 66.9 °F 45% 29.81 in 10.0 mi SW 13.8 mph 21.9 mph N/A   Mostly Cloudy
5:51 PM 91.0 °F 93.0 °F 64.9 °F 42% 29.79 in 10.0 mi SW 12.7 mph - N/A   Mostly Cloudy
6:51 PM 90.0 °F 91.7 °F 64.9 °F 43% 29.79 in 10.0 mi SW 11.5 mph - N/A   Scattered Clouds
7:51 PM 89.1 °F 91.0 °F 64.9 °F 45% 29.80 in 10.0 mi SW 12.7 mph - N/A   Scattered Clouds
8:51 PM 87.1 °F 92.0 °F 70.0 °F 57% 29.81 in 10.0 mi SW 16.1 mph 23.0 mph N/A   Scattered Clouds
9:51 PM 86.0 °F 90.7 °F 70.0 °F 59% 29.80 in 10.0 mi SW 11.5 mph 20.7 mph N/A   Mostly Cloudy
10:51 PM 84.2 °F 86.6 °F 66.2 °F 55% 29.79 in 10.0 mi WSW 21.9 mph 34.5 mph N/A   Mostly Cloudy
11:51 PM 82.9 °F 84.6 °F 64.9 °F 54% 29.81 in 10.0 mi WSW 15.0 mph 27.6 mph N/A   Mostly Cloudy